Theta_e
347 343 342 349 347 347 347 345 340 339 337 340 341 341 340 339 339 338 337 338 339 336 335 334 332 334 335 334 336 336 337 337 337 340 340 340 339 337 337 337 335 334 334
350 348 341 346 346 347 348 344 344 341 337 342 341 341 340 338 339 338 338 338 337 338 338 338 337 337 337 337 337 338 336 334 337 338 340 340 339 337 338 336 336 335 334
352 352 341 344 347 348 346 344 342 341 342 343 343 337 335 338 340 338 338 338 336 335 337 338 336 337 337 338 338 338 338 338 338 339 339 340 339 337 336 336 335 335 334
353 353 343 343 346 345 347 345 342 343 342 340 338 337 338 339 337 338 338 337 336 337 336 336 336 336 336 336 338 336 336 338 339 339 340 340 339 336 336 336 335 334 333
353 353 347 342 345 346 347 347 345 343 343 343 341 338 339 338 338 337 337 338 338 337 336 332 335 336 335 336 335 330 330 337 339 338 340 340 337 336 336 335 334 333 333
351 352 350 345 345 348 347 346 348 345 344 345 343 340 341 340 340 338 338 337 338 338 336 334 335 335 335 332 326 329 338 337 336 340 336 337 337 335 335 335 334 333 332
347 352 352 349 347 348 347 344 344 345 344 343 343 340 340 341 340 340 339 339 338 337 337 335 335 335 334 334 332 333 336 336 335 335 335 336 338 337 336 334 334 333 333
350 350 351 350 351 349 348 346 331 329 328 338 335 341 341 339 341 341 340 339 338 336 336 336 333 334 333 334 333 331 334 335 334 333 333 334 336 336 335 336 335 334 333
350 352 352 351 349 351 350 346 329 328 326 333 328 328 341 342 341 341 339 339 338 335 335 334 335 334 334 333 331 331 331 332 333 333 333 333 334 335 335 334 333 333 331
351 353 355 354 354 352 350 341 332 335 334 326 329 329 340 342 342 341 339 340 336 334 334 334 335 334 331 331 332 330 330 331 328 329 327 329 330 332 332 332 332 334 329
343 346 348 349 349 351 350 349 339 337 338 329 328 328 335 341 343 341 340 339 336 333 335 333 334 334 331 331 331 326 328 330 330 331 330 329 327 326 327 327 329 331 331
338 337 337 340 344 347 346 345 343 341 336 330 328 334 339 341 342 340 339 334 332 332 334 332 332 330 332 331 328 326 324 327 327 328 331 331 328 329 328 328 329 328 327
338 339 338 338 338 333 332 333 334 334 336 330 328 333 338 339 340 339 335 334 331 333 333 330 329 330 332 331 330 326 325 325 325 325 328 329 329 329 328 328 329 328 327
337 339 339 337 329 328 330 335 333 330 333 330 332 334 337 338 337 336 335 333 332 333 333 331 330 331 331 331 331 330 329 328 327 326 324 324 325 327 327 326 325 324 328
334 337 338 336 329 328 334 335 330 330 330 329 332 336 334 337 334 333 334 333 331 332 331 329 330 330 330 331 331 331 330 330 329 328 327 327 325 323 322 322 322 322 324
329 332 335 336 332 335 332 338 332 332 336 332 330 333 335 332 334 335 334 333 332 331 332 332 332 331 331 331 331 330 329 329 329 329 329 329 328 327 327 326 327 327 325
324 327 330 334 335 335 335 333 338 337 337 336 336 332 333 332 335 333 334 331 330 332 331 329 328 328 328 328 328 329 326 325 325 327 327 328 328 327 327 327 327 326 325
325 323 326 328 330 334 335 335 335 334 335 334 336 337 336 335 334 333 332 329 328 328 329 327 328 327 327 329 325 325 324 325 325 324 325 325 324 324 323 323 323 323 322
324 325 324 326 328 329 331 333 331 333 334 334 334 334 334 332 327 324 324 326 327 325 325 325 326 325 325 324 324 322 320 320 318 319 320 319 318 318 318 318 317 317 317
323 323 323 323 325 328 328 329 331 329 328 325 323 323 323 323 323 325 326 327 327 328 327 326 324 323 323 321 320 320 321 320 320 319 319 317 318 316 317 316 317 316 315
318 322 323 323 324 324 325 326 324 323 323 322 321 321 324 324 324 325 327 327 326 327 325 322 324 322 322 322 322 321 320 319 319 318 317 316 315 314 313 313 313 313 313
318 319 319 322 323 325 325 325 327 322 322 322 323 324 324 325 325 324 324 325 325 324 324 323 323 321 323 319 319 319 318 317 315 313 312 310 308 306 305 305 306 306 306
316 322 322 322 322 323 324 325 325 327 326 325 324 323 322 324 323 323 325 325 324 322 321 320 319 318 317 316 314 311 309 307 307 306 306 305 306 305 305 305 304 305 305
318 322 323 323 324 324 325 325 325 325 326 326 326 324 324 325 325 324 323 322 321 319 317 315 312 310 308 306 303 302 301 301 301 301 301 302 303 304 304 304 304 304 304
321 320 321 323 324 325 325 325 325 325 326 327 325 325 323 322 321 321 319 318 315 313 311 310 309 306 303 303 303 302 301 300 300 300 300 300 300 301 302 304 303 302 302
321 322 323 323 324 324 323 323 323 325 325 323 322 321 321 320 318 316 313 312 309 306 306 305 306 306 305 304 302 301 300 299 299 298 298 297 298 298 299 300 299 298 298
Wind_Speed
16 17 20 18 17 15 14 15 15 15 13 11 10 8 7 8 7 9 9 11 13 13 14 14 13 10 11 12 13 15 15 17 19 21 17 14 16 15 14 10 10 9 9
15 13 18 18 19 17 16 17 17 18 15 13 11 10 10 10 9 7 7 7 9 11 12 11 11 12 14 15 15 15 17 18 20 21 20 17 20 18 14 10 11 12 11
17 13 16 20 20 17 15 18 19 17 14 13 14 12 11 12 11 9 9 8 7 11 12 12 9 11 12 14 14 15 15 15 18 21 20 20 21 19 17 14 14 13 12
20 18 17 19 20 15 14 16 17 19 17 15 15 15 12 12 11 11 10 11 11 9 10 10 9 11 17 14 13 13 14 15 17 18 19 20 23 21 20 16 17 16 14
23 20 16 18 18 14 11 12 13 16 15 14 14 14 12 10 10 11 11 12 12 13 11 11 11 12 13 13 15 14 12 11 11 13 16 22 24 24 23 20 17 15 14
19 19 15 17 19 16 15 17 16 16 16 14 14 15 15 16 16 14 13 13 14 12 11 10 12 12 12 10 11 9 5 6 5 11 13 15 21 26 25 21 19 17 17
21 22 20 15 19 21 22 15 4 13 18 18 18 20 20 23 21 20 20 17 16 15 12 11 11 11 11 10 8 7 7 7 6 7 10 12 14 20 22 23 22 20 18
27 24 23 17 22 26 28 24 19 22 24 30 24 28 30 26 27 24 21 19 16 16 16 14 11 9 8 8 7 7 8 9 7 6 8 9 9 12 15 16 17 18 17
23 25 28 26 27 30 31 23 18 21 23 36 34 34 38 32 27 26 21 22 18 17 16 14 12 9 7 9 7 5 5 9 10 9 8 8 7 9 13 17 20 20 22
10 17 24 27 30 34 33 31 28 27 30 24 41 39 41 34 30 28 24 22 19 17 17 16 13 11 8 9 8 7 6 4 4 5 5 7 7 8 8 10 14 19 21
15 18 18 19 24 29 33 36 37 36 34 30 35 39 46 36 33 29 25 21 19 17 20 20 17 14 11 10 9 7 7 7 6 6 4 3 5 5 4 6 8 12 16
17 17 14 13 17 25 27 35 38 38 32 33 39 33 33 33 32 27 22 19 18 17 19 19 18 15 13 11 11 10 9 9 8 8 8 6 4 3 2 2 4 5 6
15 17 17 16 16 21 24 28 28 25 26 30 23 28 33 34 30 23 19 18 17 17 18 17 16 15 14 13 11 12 11 11 11 10 9 9 8 8 8 9 10 9 10
16 15 15 14 14 16 17 20 22 18 21 28 23 23 29 27 24 21 20 18 16 17 19 18 16 14 14 14 13 12 10 10 11 12 12 12 13 13 12 12 11 11 15
16 15 14 16 17 16 15 17 8 10 12 16 14 19 14 21 23 19 20 14 15 16 18 18 17 16 14 14 13 14 14 13 14 14 13 13 14 15 15 15 16 17 18
14 15 13 16 13 14 15 11 5 8 6 6 18 16 20 23 21 18 15 12 14 16 18 16 16 16 15 13 12 11 10 14 13 12 11 12 12 12 13 13 14 13 15
19 16 11 10 12 17 15 15 13 12 13 17 25 23 20 19 18 15 17 18 18 19 18 15 14 14 14 11 10 11 10 11 12 13 12 9 9 9 7 9 12 13 14
14 15 14 12 10 10 10 13 16 14 13 16 19 20 17 20 18 17 20 17 18 16 16 14 15 13 11 10 9 8 8 10 11 11 11 10 10 9 9 9 9 10 11
15 16 19 13 12 10 7 10 9 10 11 17 20 20 21 22 22 19 18 17 15 15 15 14 11 9 7 6 5 5 6 7 6 6 6 4 2 1 1 0 1 2 1
8 10 11 13 11 11 4 5 11 12 15 19 22 20 20 18 19 20 17 14 15 16 15 12 9 8 7 6 7 7 5 4 1 0 1 1 1 2 4 3 3 3 4
9 8 10 11 7 9 9 4 8 11 16 16 16 18 18 19 19 20 17 13 12 15 13 8 7 9 9 7 5 5 5 4 4 3 4 4 4 4 4 4 2 4 7
7 6 6 8 7 4 3 3 2 12 15 18 19 18 18 16 15 11 10 11 15 17 13 13 12 8 8 8 7 6 7 6 5 4 3 2 2 4 4 5 4 4 6
5 4 3 3 4 5 8 8 8 5 10 15 18 20 15 13 16 9 11 12 14 14 12 10 7 6 6 6 5 5 4 3 3 3 3 3 3 4 5 6 7 8 9
1 0 1 2 1 1 1 3 9 7 11 10 20 17 13 14 17 17 15 13 12 10 7 6 8 9 8 6 4 3 2 1 2 2 3 4 5 6 7 7 6 8 9
6 4 3 2 1 4 4 5 6 11 15 18 17 17 19 20 20 17 15 12 10 11 11 10 9 9 8 6 4 2 2 2 3 4 5 6 6 7 8 9 10 10 12
8 7 6 5 3 7 6 7 8 11 17 15 17 19 17 14 13 13 14 14 15 13 11 11 10 8 6 4 4 3 3 2 2 3 3 4 6 7 8 10 12 13 15
Wind_Direction
215 220 222 223 228 231 239 238 229 227 231 227 230 242 247 252 262 258 256 254 254 251 249 250 252 257 254 253 242 245 242 242 254 254 251 240 226 225 224 231 217 200 198
219 225 223 223 226 230 241 236 233 231 227 224 228 240 238 226 227 230 236 253 268 261 256 250 255 250 257 257 252 249 246 250 248 251 247 236 222 219 220 222 203 204 205
224 230 224 220 223 228 235 227 229 227 233 245 251 243 236 225 228 234 235 246 276 266 263 253 259 274 278 280 267 262 261 260 254 251 250 236 222 218 216 209 208 212 214
229 228 223 222 221 224 238 237 229 231 230 234 238 242 232 226 230 225 238 236 253 270 266 264 252 274 291 281 271 271 272 267 256 251 248 244 227 214 212 219 211 208 211
231 235 238 227 223 223 223 237 250 253 260 273 270 239 221 230 232 236 241 252 258 255 272 251 251 265 284 277 278 278 270 259 251 238 233 230 215 206 217 223 222 222 217
239 247 254 236 231 237 232 227 234 250 260 259 269 249 244 243 246 253 256 258 261 256 256 259 240 255 268 283 278 265 252 254 258 219 209 220 223 211 216 221 220 219 221
275 256 254 246 238 232 233 206 251 278 262 252 256 252 241 250 252 256 259 257 260 247 237 249 254 249 256 268 288 239 220 215 225 245 247 250 231 224 223 222 224 228 234
251 256 256 251 247 258 235 236 252 238 264 243 260 249 243 236 248 253 256 258 259 244 242 248 228 240 267 271 266 231 216 225 235 246 243 242 239 236 234 241 243 238 240
272 263 257 251 255 251 245 233 260 249 249 233 254 265 239 239 238 243 244 257 255 242 240 241 223 225 235 255 261 246 233 230 222 229 232 235 222 221 221 234 239 241 241
281 263 262 262 258 252 253 242 248 263 277 256 246 257 232 227 237 238 243 251 249 239 225 225 222 215 236 237 242 252 252 262 217 238 246 245 241 236 239 240 236 239 242
284 280 275 273 267 264 264 272 256 271 270 240 257 252 235 218 231 231 236 243 250 239 226 219 222 232 234 234 237 239 231 235 229 222 218 234 233 233 238 253 255 244 247
302 301 291 268 264 261 259 259 266 273 261 249 250 244 224 221 225 225 230 234 240 226 220 213 217 227 230 235 237 245 242 236 243 251 244 238 218 186 176 237 253 257 261
297 305 296 284 265 262 263 268 269 270 256 243 253 254 232 219 216 220 221 229 230 217 208 212 215 217 223 225 226 227 234 242 244 241 241 241 241 236 239 250 257 249 243
295 302 301 291 280 283 290 281 276 267 258 244 260 236 222 212 207 218 216 220 215 206 201 205 210 218 223 223 216 217 228 237 245 248 240 241 244 249 251 254 262 267 255
314 294 298 291 281 295 297 315 302 246 256 248 209 201 220 209 209 224 225 222 211 202 203 205 211 219 225 227 227 238 252 252 255 252 251 251 251 249 250 255 259 259 263
340 313 300 289 281 293 289 301 278 230 241 259 193 237 208 200 226 211 215 206 205 209 211 216 221 222 226 225 232 232 240 245 237 241 250 252 246 249 255 258 264 271 270
4 351 333 305 297 291 282 265 259 251 255 250 218 214 209 223 210 213 210 196 200 204 203 212 219 220 218 234 233 240 245 249 261 254 261 253 239 242 250 252 255 266 266
3 359 348 347 332 307 296 278 256 252 267 268 215 226 209 209 198 185 183 187 190 192 198 209 212 218 221 208 218 218 230 242 236 238 242 246 262 261 263 252 250 247 249
352 22 26 359 355 338 313 264 237 213 177 157 145 149 146 150 153 158 165 168 163 162 155 150 157 159 168 190 212 220 219 214 206 181 190 192 169 152 156 124 193 188 180
338 356 7 17 9 10 348 261 231 190 159 144 137 136 131 138 148 151 164 173 172 169 158 151 152 163 181 177 155 146 146 142 123 340 215 243 100 307 298 305 281 268 273
318 320 334 331 334 7 354 214 194 184 166 163 154 149 151 156 160 160 166 172 181 186 160 153 196 177 177 166 168 182 197 207 209 254 313 307 308 319 319 314 305 292 283
296 303 313 319 323 311 360 82 120 195 177 161 157 162 159 161 159 158 178 193 172 170 174 176 179 175 186 191 205 212 240 246 256 260 268 285 326 341 348 352 350 330 318
273 262 311 317 297 281 258 248 248 191 177 187 173 167 141 153 165 180 173 155 149 140 145 151 156 178 188 192 186 189 194 202 219 233 258 278 299 323 338 347 343 339 339
38 86 1 313 326 346 96 157 135 151 179 167 168 180 188 181 175 170 160 157 156 161 165 155 140 136 132 141 155 160 172 190 224 246 264 278 287 293 299 307 308 302 301
64 93 72 55 122 153 154 130 138 160 173 177 171 170 164 161 156 151 155 158 157 142 135 134 130 128 127 115 89 54 22 3 327 309 307 306 302 295 286 290 301 307 306
76 84 84 80 113 157 154 148 142 160 180 168 160 155 152 148 154 158 152 144 137 128 126 129 118 108 94 66 41 27 11 352 329 319 318 311 304 302 301 302 304 307 307